THORAD DELTA 1 DEB, 8159

Orbit data source: Space-Track

THORAD DELTA 1 DEB, 8159 is space debris in SSO originally from a launch on Fri, 15 Nov 1974 UTC launched from the Air Force Western Test Range (AFWTR). Debris objects in space refer to the collection of defunct objects orbiting the Earth. Examples of debris include non-operational satellites, rocket bodies, and fragments generated from explosions, collisions, or faulty payload assembly.

Loading next visibility...
Identifier
8159, 1974-089Z
Orbit
SSO
Country
Flag of USUS
Related business
Manufacturer
Unknown
Mission
Spacecraft
Bus & Motor
Unknown
Mass
Unknown
Launch date (UTC)
1974-11-15 (51 years ago)
Launch vehicle
Unknown
Launch site
Air Force Western Test Range (AFWTR)
Object type
Payload
Rocket body
Debris
Shape & HBR
Unknown shape, 1.1 m
Radar Cross Section
Small (<0.1 m²)

Expand to show TLE details & history
Last TLE update: 1 day ago

TLE from 1 day ago
0 THORAD DELTA 1 DEB
1 08159U 74089Z   26072.06018571  .00000940  00000-0  50556-2 0  9992
2 08159 101.3864  95.3638 0032441  59.1680 301.2588 12.68426597346612
Epoch: 2026-03-13T01:26Z
TLE epoch observation values (Epoch: 2026-03-13T01:26:40.045Z)
Latitude
0.00001°
Longitude
-97.0042°
Altitude
1,377.952 km
Speed
7.176 km/s
True Right ascension
06h 21m 27s
True Declination
0° 00' 00"
Sunlit
Object was in daylight at epoch
Visualization orbit readout
Latitude
Unknown
Longitude
Unknown
Altitude
Unknown
Speed
Unknown
Apparent Right ascension
Unknown
Apparent Declination
Unknown
Sunlit
N/A
Visualization observer readout
Local Sidereal Time
09:53:42
Azimuth
Unknown
Elevation
Unknown
Doppler factor
Unknown
Orbital elements
Apogee altitude
1,411.045 km
Perigee altitude
1,360.67 km
Semi-major axis
7,763.994 km
Eccentricity
0.00324
Inclination
101.3864°
RAAN
95.3638°
Arg. of periapsis
59.168°
True anomaly
300.94035°
Mean anomaly
301.2588°
Eccentric anomaly
301.09964°
Mean motion
3.1726 °/min
Orbital period
113.47 mins
BSTAR
0.0050556
Loading maneuver chart data...
Computing Atmospheric mass density...
Loading historical data...
Loading historical data...
Loading historical data...
Loading historical data...
Loading historical data...
Loading historical data...
Loading historical data...

Documentation

Showing up to 5 results
|